Location: Unspecified
(33.6682°S, 0.0000°E)
Time: 06:25:56
(UTC+00:00)

Vanguard 1 - Pass Details

Date: 29 June 2019
Orbit: 653 x 3830 km, 34.3° (Epoch: 17 July)

Event Time Altitude Azimuth Distance (km) Brightness Sun altitude
Rises 20:15:33 0° 259° (W) 5,397 14.7 -39.4°
Reaches altitude 10° 20:18:59 10° 268° (W) 4,782 14.2 -40.1°
Maximum altitude 20:31:40 36° 327° (NNW) 4,208 13.3 -42.8°
Drops below altitude 10° 20:50:17 10° 23° (NNE) 6,867 14.1 -46.6°
Sets 20:56:42 0° 31° (NNE) 7,956 14.5 -48.0°
